Regional Weather Roundup
Issued by NWS

Home | Current Version | Previous Version | Graphics & Text | Print | Product List | Glossary On
Versions: 1 2 3 4 5 6 7 8 9 10 11 12 13 14 15 16 17 18 19 20 21 22 23 24 25 26 27 28 29 30 31 32 33 34 35 36 37 38 39 40 41 42 43 44 45 46 47 48 49 50
000
ASUS43 KFSD 050702
RWRSD

WEATHER ROUNDUP FOR SOUTH DAKOTA
NATIONAL WEATHER SERVICE SIOUX FALLS SD
100 AM CST MON DEC 05 2016

NOTE: "FAIR" INDICATES FEW OR NO CLOUDS BELOW 12,000 FEET WITH NO
SIGNIFICANT WEATHER AND/OR OBSTRUCTIONS TO VISIBILITY.


SDZ001>005-009-010-012>017-050800-
NORTHWEST AND NORTH CENTRAL SOUTH DAKOTA

CITY           SKY/WX    TMP DP  RH WIND       PRES   REMARKS
BUFFALO          N/A     31  21  66 S7        29.45S WCI  24
FAITH            N/A     26  21  81 SE14      29.52F WCI  14
MOBRIDGE       CLOUDY    34  26  72 SE14      29.57F WCI  25
$$

SDZ012>016-024>037-041>051-057-063-072>074-050800-
SOUTHWEST AND SOUTH CENTRAL SOUTH DAKOTA

CITY           SKY/WX    TMP DP  RH WIND       PRES   REMARKS
RAPID CTY ARPT PTCLDY    31  19  61 CALM      29.50F
PIERRE         PTCLDY    30  24  78 E6        29.58F WCI  24
CUSTER         CLOUDY    34  18  52 W7        29.54F WCI  28
PHILIP         CLOUDY    31  25  78 E3        29.55F
PINE RIDGE     PTCLDY    34  25  69 SW5       29.58F WCI  30
SPEARFISH      FAIR      41  23  48 SW18G25   29.49F
WINNER         FAIR      39  20  46 S16       29.57F
$$

SDZ004>011-016>023-039-040-050800-
NORTHEAST SOUTH DAKOTA

CITY           SKY/WX    TMP DP  RH WIND       PRES   REMARKS
ABERDEEN       CLOUDY    27  23  85 S6        29.68F WCI  20
WATERTOWN      CLOUDY    27  24  89 SE6       29.71F WCI  20
SISSETON         N/A     34  27  75 CALM      29.69F
$$

SDZ017-020-022-023-036>040-048>070-050800-
SOUTHEAST SOUTH DAKOTA

CITY           SKY/WX    TMP DP  RH WIND       PRES   REMARKS
SIOUX FALLS    MOCLDY    32  27  81 S6        29.74F WCI  26
HURON          CLOUDY    31  28  89 E7        29.67F WCI  24
CHAMBERLAIN    CLOUDY    35  29  80 SE8       29.60F WCI  28
MITCHELL       CLOUDY    32  28  85 SE9       29.68F WCI  24
YANKTON        CLEAR     30  25  80 E3        29.73F
$$

ABBREVIATIONS USED IN REMARKS
   TC - TEMPERATURE IN CELSIUS
  WCI - WIND CHILL INDEX
   HX - HEAT INDEX
  VSB - VISIBILITY





USA.gov is the U.S. government's official web portal to all federal, state and local government web resources and services.